Simultaneous Nadir Overpasses (SNOs) Predictions

Prediction of SNOs between NOAA-19 and NPP Satellite Orbit:

Table of predicted SNOs for the next 14.0 days since TLE Epoch: 9/4/2021
Index Date (NOAA-19) Time (NOAA-19) Lat,Lon (NOAA-19) SZA (NOAA-19 ) Date (NPP) Time (NPP) Lat,Lon (NPP) SZA (NPP ) Distance(km) Time Diff (sec)
1 09/14/2021 02:46:15 77.92, 113.82 75.53 09/14/2021 02:47:29 77.90, 113.92 75.48 3.06 74
2 09/14/2021 03:37:13 -77.91, -78.95 104.47 09/14/2021 03:38:14 -77.92, -78.83 104.50 2.70 61
3 09/14/2021 04:28:15 77.93, 88.38 75.56 09/14/2021 04:29:00 77.95, 88.32 75.56 2.19 45
4 09/14/2021 05:19:13 -77.92,-104.40 104.44 09/14/2021 05:19:45 -77.96,-104.43 104.41 4.00 32
5 09/14/2021 06:10:15 77.94, 62.94 75.59 09/14/2021 06:10:30 77.95, 62.94 75.59 1.04 15
6 09/14/2021 07:01:13 -77.93,-129.84 104.40 09/14/2021 07:01:15 -77.96,-129.82 104.38 3.28 2
7 09/14/2021 07:52:15 77.95, 37.49 75.62 09/14/2021 07:52:00 77.95, 37.55 75.62 1.27 15
8 09/14/2021 08:43:13 -77.94,-155.29 104.37 09/14/2021 08:42:45 -77.96,-155.21 104.35 3.16 28
9 09/14/2021 09:34:15 77.96, 12.05 75.65 09/14/2021 09:33:30 77.95, 12.16 75.65 2.51 45
10 09/14/2021 10:25:12 -77.99, 179.48 104.33 09/14/2021 10:24:15 -77.97, 179.40 104.32 3.00 57
11 09/14/2021 11:16:15 77.97, -13.39 75.68 09/14/2021 11:15:01 78.00, -13.44 75.74 3.52 74



Historial Predications of SNOs between NOAA-19 and NPP
